Estación de La Cruz

Ultimos registro cada 15 minutos 31
Estación Fecha / Hora Temperatura Humedad Lluvia Velocidad Dirección Radiación Presion
31 La Cruz 10-05-2026 07:30 4,2 83,4 0 0 270 3,1 995
30 La Cruz 10-05-2026 07:15 4,4 82,8 0 0 270 0,6 995,1
29 La Cruz 10-05-2026 07:00 5 81 0 0 270 0,6 995,1
28 La Cruz 10-05-2026 06:45 6,5 76,4 0 0 270 0,6 995,1
27 La Cruz 10-05-2026 06:30 6,7 76 0 0 319 0,6 994,9
26 La Cruz 10-05-2026 06:15 7,1 74,5 0 0 327 0,6 994,9
25 La Cruz 10-05-2026 06:00 8,6 68,1 0 0 324 0,6 994,6
24 La Cruz 10-05-2026 05:45 8,5 68,5 0 0 330 0,6 994,4
23 La Cruz 10-05-2026 05:30 8 73,1 0 0 4 0,6 994,3
22 La Cruz 10-05-2026 05:15 7,5 77,7 0 0 352 0,6 994,2
21 La Cruz 10-05-2026 05:00 7,4 81,8 0 0 37 0,6 994
20 La Cruz 10-05-2026 04:45 6,2 95,1 0 0 166 0,6 994,3
19 La Cruz 10-05-2026 04:30 4,3 94,9 0 0 173 0,6 994,3
18 La Cruz 10-05-2026 04:15 3,4 94,9 0 0 173 0,6 994,6
17 La Cruz 10-05-2026 04:00 2,4 94,5 0 0 173 0,6 994,7
16 La Cruz 10-05-2026 03:45 2,5 94,4 0 0 173 0,6 995
15 La Cruz 10-05-2026 03:30 2,5 94,1 0 0 173 0,6 995,2
14 La Cruz 10-05-2026 03:15 2,6 93,8 0 0 173 0,6 995,1
13 La Cruz 10-05-2026 03:00 3,2 94,2 0 0 173 0,6 995,2
12 La Cruz 10-05-2026 02:45 3,1 93,9 0 0 173 0,6 995,3
11 La Cruz 10-05-2026 02:30 3,4 93,9 0 0 173 0,6 995,2
10 La Cruz 10-05-2026 02:15 3,7 94 0 0 173 0,6 995,3
9 La Cruz 10-05-2026 02:00 3,4 93,6 0 0 173 0,6 995,5
8 La Cruz 10-05-2026 01:45 3,9 93,3 0 0 173 0,6 995,6
7 La Cruz 10-05-2026 01:30 4,8 93,6 0 0 173 0,6 995,8
6 La Cruz 10-05-2026 01:15 4,4 93,7 0 0 171 0,6 995,7
5 La Cruz 10-05-2026 01:00 4,1 93,3 0 0 171 0,6 995,9
4 La Cruz 10-05-2026 00:45 4,3 93 0 0 171 0,6 996,2
3 La Cruz 10-05-2026 00:30 4,8 92,9 0 0 171 0,6 996,2
2 La Cruz 10-05-2026 00:15 5 92,7 0 0 171 0,6 996,1
1 La Cruz 10-05-2026 00:00 5,1 92,3 0 0 171 0,6 996,1